Latest Weather Observations for Nambour

IDQ60901

Issued at 9:55 pm EST Tuesday 21 October 2014 (issued every 10 minutes, with the page automatically refreshed every 10 minutes)

About weather observations | Map of Brisbane area stations | Latest observations for Brisbane area | Other Formats
Station Details ID: 040988 Name: NAMBOUR DAFF - HILLSIDE Lat: -26.64 Lon: 152.94 Height: 53.24 m
Data from the previous 72 hours. | See also: Recent months at Nambour
Date/Time
EST
Tmp

°C
App
Tmp
°C
Dew
Point
°C
Rel
Hum
%
Delta-T

°C
Wind Press
QNH
hPa
Press
MSL
hPa
Rain
since
9 am
mm
Dir
 
Spd
km/h
Gust
km/h
Spd
kts
Gust
kts
21/09:30pm 18.2 19.0 14.7 80 2.0 SE 4 9 2 5 1027.3 1027.2 1.2
21/09:00pm 18.1 18.7 15.2 83 1.7 E 6 7 3 4 1027.1 1027.0 1.2
21/08:30pm 18.7 19.0 14.6 77 2.4 ESE 6 13 3 7 1026.9 1026.8 1.2
21/08:00pm 18.8 20.0 14.9 78 2.3 ENE 2 7 1 4 1026.6 1026.5 1.2
21/07:30pm 18.4 19.7 15.1 81 1.9 E 2 7 1 4 1026.6 1026.5 1.2
21/07:00pm 19.2 20.3 14.7 75 2.6 SSW 2 7 1 4 1026.3 1026.2 0.8
21/06:30pm 19.4 20.5 15.7 79 2.2 SSE 4 11 2 6 1026.1 1026.0 0.8
21/06:00pm 19.7 20.4 15.6 77 2.4 ESE 6 19 3 10 1025.8 1025.7 0.8
21/05:30pm 20.2 20.7 15.6 75 2.7 ESE 7 13 4 7 1025.6 1025.5 0.8
21/05:00pm 20.7 20.4 15.5 72 3.1 ESE 11 24 6 13 1025.3 1025.2 0.8
21/04:30pm 21.9 21.9 15.3 66 3.9 E 9 20 5 11 1024.8 1024.7 0.8
21/04:00pm 22.5 22.6 15.4 64 4.2 E 9 26 5 14 1024.5 1024.4 0.8
21/03:30pm 23.6 23.1 14.9 58 5.2 ESE 11 32 6 17 1024.2 1024.1 0.8
21/03:00pm 23.3 23.0 14.3 57 5.3 ESE 9 20 5 11 1024.1 1024.0 0.8
21/02:30pm 23.1 23.4 15.9 64 4.3 E 9 24 5 13 1024.3 1024.2 0.8
21/02:00pm 22.0 22.3 16.1 69 3.6 E 9 17 5 9 1024.6 1024.5 0.8
21/01:30pm 22.6 22.5 15.9 66 4.0 E 11 28 6 15 1024.8 1024.7 0.8
21/01:00pm 21.2 21.9 16.2 73 3.0 SSE 7 20 4 11 1025.2 1025.1 0.8
21/12:30pm 20.6 21.7 16.6 78 2.4 ESE 6 17 3 9 1025.7 1025.6 0.8
21/12:00pm 21.4 22.9 16.6 74 2.9 SSE 4 9 2 5 1025.9 1025.8 0.4
21/11:30am 21.6 22.8 16.8 74 2.9 SSE 6 13 3 7 1026.3 1026.2 0.4
21/11:00am 20.4 22.3 18.5 89 1.2 SE 6 13 3 7 1026.7 1026.6 0.4
21/10:30am 19.0 20.9 17.7 92 0.8 ESE 4 7 2 4 1027.0 1026.9 0.2
21/10:00am 18.8 19.9 17.1 90 1.0 SE 7 22 4 12 1027.2 1027.1 0.2
21/09:30am 19.4 20.2 15.9 80 2.1 SE 6 13 3 7 1027.3 1027.2 0.0
21/09:00am 21.4 22.9 16.6 74 2.9 WSW 4 13 2 7 1027.1 1027.0 0.2
21/08:30am 19.6 20.8 15.9 79 2.2 SW 4 9 2 5 1027.1 1027.0 0.2
21/08:00am 19.0 19.9 16.2 84 1.7 SW 6 9 3 5 1027.1 1027.0 0.2
21/07:30am 18.4 18.8 14.7 79 2.1 E 6 9 3 5 1026.7 1026.6 0.2
21/07:00am 17.5 19.4 15.7 89 1.1 WNW 0 7 0 4 1026.3 1026.2 0.2
21/06:30am 16.2 17.8 14.9 92 0.8 CALM 0 0 0 0 1025.9 1025.8 0.2
21/06:00am 15.1 16.4 14.0 93 0.6 CALM 0 0 0 0 1025.6 1025.5 0.2
21/05:30am 14.5 15.5 13.2 92 0.7 CALM 0 0 0 0 1025.4 1025.3 0.2
21/05:00am 14.1 15.0 12.8 92 0.7 CALM 0 0 0 0 1025.0 1024.9 0.2
21/04:30am 14.3 15.2 13.0 92 0.7 CALM 0 0 0 0 1024.8 1024.7 0.2
21/04:00am 14.4 15.2 12.6 89 1.0 CALM 0 0 0 0 1024.6 1024.5 0.2
21/03:30am 14.6 15.5 12.8 89 1.0 CALM 0 0 0 0 1024.8 1024.7 0.2
21/03:00am 15.0 15.9 13.0 88 1.1 CALM 0 0 0 0 1025.1 1025.0 0.2
21/02:30am 15.2 15.6 12.5 84 1.5 SW 2 6 1 3 1025.1 1025.0 0.2
21/02:00am 15.4 16.2 12.7 84 1.5 CALM 0 0 0 0 1025.2 1025.1 0.2
21/01:30am 15.6 16.4 12.7 83 1.6 CALM 0 0 0 0 1025.5 1025.4 0.2
21/01:00am 15.7 16.5 12.5 81 1.8 CALM 0 0 0 0 1025.8 1025.7 0.2
21/12:30am 16.4 17.4 13.1 81 1.8 CALM 0 2 0 1 1026.1 1026.0 0.2
21/12:00am 16.2 17.0 12.7 80 1.9 ESE 0 0 0 0 1026.4 1026.3 0.2
 
Date/Time
EST
Tmp

°C
App
Tmp
°C
Dew
Point
°C
Rel
Hum
%
Delta-T

°C
Wind Press
QNH
hPa
Press
MSL
hPa
Rain
since
9 am
mm
Dir
 
Spd
km/h
Gust
km/h
Spd
kts
Gust
kts
20/11:30pm 16.6 17.5 12.9 79 2.1 CALM 0 0 0 0 1026.6 1026.5 0.2
20/11:00pm 16.9 17.9 13.2 79 2.1 CALM 0 0 0 0 1026.7 1026.6 0.2
20/10:30pm 16.3 17.3 13.2 82 1.7 CALM 0 0 0 0 1026.8 1026.7 0.2
20/10:00pm 15.6 16.4 12.4 81 1.7 CALM 0 2 0 1 1026.8 1026.7 0.2
20/09:30pm 16.3 17.0 12.3 77 2.2 CALM 0 0 0 0 1026.5 1026.4 0.2
20/09:00pm 16.8 17.6 12.5 76 2.4 CALM 0 0 0 0 1026.3 1026.2 0.2
20/08:30pm 16.6 17.4 12.6 77 2.2 CALM 0 0 0 0 1026.0 1025.9 0.2
20/08:00pm 16.2 16.9 12.2 77 2.2 CALM 0 0 0 0 1025.5 1025.4 0.2
20/07:30pm 17.1 17.8 12.2 73 2.7 CALM 0 0 0 0 1025.0 1024.9 0.2
20/07:00pm 18.5 19.1 12.0 66 3.6 CALM 0 0 0 0 1024.5 1024.4 0.2
20/06:30pm 19.4 19.7 12.2 63 4.0 ESE 2 6 1 3 1024.2 1024.1 0.2
20/06:00pm 20.1 19.9 11.8 59 4.6 ESE 4 7 2 4 1023.6 1023.5 0.2
20/05:30pm 20.8 20.0 11.2 54 5.3 E 6 9 3 5 1023.1 1023.0 0.2
20/05:00pm 21.9 20.9 11.0 50 6.0 E 7 11 4 6 1022.7 1022.6 0.2
20/04:30pm 22.6 21.1 10.7 47 6.6 E 9 15 5 8 1022.4 1022.3 0.2
20/04:00pm 23.2 21.5 11.3 47 6.6 E 11 17 6 9 1022.3 1022.2 0.2
20/03:30pm 23.5 21.6 11.9 48 6.6 E 13 19 7 10 1022.1 1022.0 0.2
20/03:00pm 24.0 22.2 12.0 47 6.8 ENE 13 19 7 10 1021.9 1021.8 0.2
20/02:30pm 24.2 22.2 11.5 45 7.2 E 13 22 7 12 1022.1 1022.0 0.2
20/02:00pm 24.3 22.6 12.3 47 6.9 E 13 24 7 13 1022.2 1022.1 0.2
20/01:30pm 24.1 21.2 11.1 44 7.3 ENE 17 22 9 12 1022.6 1022.5 0.2
20/01:00pm 24.0 21.9 11.0 44 7.2 E 13 22 7 12 1022.8 1022.7 0.2
20/12:30pm 24.4 21.9 11.0 43 7.5 E 15 22 8 12 1023.2 1023.1 0.2
20/12:00pm 24.4 22.9 10.7 42 7.6 E 9 20 5 11 1023.6 1023.5 0.2
20/11:30am 24.6 22.8 10.8 42 7.7 E 11 20 6 11 1024.1 1024.0 0.2
20/11:00am 24.1 23.1 11.1 44 7.3 E 7 17 4 9 1024.6 1024.5 0.2
20/10:30am 23.4 21.4 10.1 43 7.3 ENE 11 19 6 10 1025.0 1024.9 0.2
20/10:00am 23.0 21.7 10.1 44 7.0 ENE 7 17 4 9 1025.4 1025.3 0.2
20/09:30am 22.6 22.6 11.0 48 6.4 NE 2 13 1 7 1025.7 1025.6 0.2
20/09:00am 22.1 21.2 11.2 50 6.0 ESE 7 19 4 10 1025.9 1025.8 0.0
20/08:30am 21.2 20.8 11.0 52 5.6 SE 4 7 2 4 1026.0 1025.9 0.0
20/08:00am 21.0 20.1 10.8 52 5.6 E 6 13 3 7 1025.9 1025.8 0.0
20/07:30am 20.4 20.1 11.6 57 4.9 ESE 4 7 2 4 1025.8 1025.7 0.0
20/07:00am 18.4 19.5 13.5 73 2.8 CALM 0 0 0 0 1025.6 1025.5 0.0
20/06:30am 15.7 16.5 12.6 82 1.7 CALM 0 0 0 0 1025.3 1025.2 0.0
20/06:00am 14.3 15.1 12.7 90 0.9 CALM 0 0 0 0 1025.0 1024.9 0.0
20/05:30am 12.8 13.3 11.5 92 0.7 CALM 0 0 0 0 1024.8 1024.7 0.0
20/05:00am 13.0 13.6 11.9 93 0.6 CALM 0 0 0 0 1024.6 1024.5 0.0
20/04:30am 12.8 13.2 11.2 90 0.8 CALM 0 0 0 0 1024.4 1024.3 0.0
20/04:00am 13.3 13.7 11.2 87 1.1 CALM 0 0 0 0 1024.3 1024.2 0.0
20/03:30am 13.6 14.0 11.1 85 1.3 CALM 0 0 0 0 1024.2 1024.1 0.0
20/03:00am 14.1 14.5 11.4 84 1.4 CALM 0 0 0 0 1024.3 1024.2 0.0
20/02:30am 14.7 15.3 11.8 83 1.6 CALM 0 0 0 0 1024.3 1024.2 0.0
20/02:00am 14.8 15.2 11.4 80 1.8 CALM 0 0 0 0 1024.6 1024.5 0.0
20/01:30am 15.5 16.0 11.7 78 2.1 CALM 0 0 0 0 1024.8 1024.7 0.0
20/01:00am 16.6 17.3 12.2 75 2.4 CALM 0 0 0 0 1025.2 1025.1 0.0
20/12:30am 17.3 18.0 12.2 72 2.8 CALM 0 4 0 2 1025.6 1025.5 0.0
20/12:00am 17.1 18.0 13.0 77 2.3 CALM 0 0 0 0 1025.9 1025.8 0.0
 
Date/Time
EST
Tmp

°C
App
Tmp
°C
Dew
Point
°C
Rel
Hum
%
Delta-T

°C
Wind Press
QNH
hPa
Press
MSL
hPa
Rain
since
9 am
mm
Dir
 
Spd
km/h
Gust
km/h
Spd
kts
Gust
kts
19/11:30pm 17.3 18.1 12.4 73 2.7 CALM 0 0 0 0 1026.1 1026.0 0.0
19/11:00pm 17.3 18.0 12.2 72 2.8 CALM 0 0 0 0 1026.2 1026.1 0.0
19/10:30pm 17.6 18.5 12.9 74 2.6 CALM 0 0 0 0 1026.5 1026.4 0.0
19/10:00pm 17.9 18.7 12.4 70 3.0 CALM 0 2 0 1 1026.5 1026.4 0.0
19/09:30pm 17.8 18.6 12.5 71 3.0 CALM 0 6 0 3 1026.4 1026.3 0.0
19/09:00pm 17.9 18.3 12.6 71 2.9 S 2 6 1 3 1026.4 1026.3 0.0
19/08:30pm 18.3 19.1 12.7 70 3.1 CALM 0 2 0 1 1026.3 1026.2 0.0
19/08:00pm 18.2 19.0 12.4 69 3.2 CALM 0 2 0 1 1026.0 1025.9 0.0
19/07:30pm 18.6 19.3 12.1 66 3.6 CALM 0 4 0 2 1025.8 1025.7 0.0
19/07:00pm 18.9 19.7 12.4 66 3.6 CALM 0 4 0 2 1025.7 1025.6 0.0
19/06:30pm 19.4 20.0 11.9 62 4.2 CALM 0 4 0 2 1025.2 1025.1 0.0
19/06:00pm 19.9 19.7 11.9 60 4.4 ESE 4 9 2 5 1024.8 1024.7 0.0
19/05:30pm 20.5 19.9 12.2 59 4.7 ESE 7 15 4 8 1024.6 1024.5 0.0
19/05:00pm 20.9 20.2 12.1 57 4.9 ESE 7 13 4 7 1024.2 1024.1 0.0
19/04:30pm 21.4 20.5 12.5 57 5.0 E 9 19 5 10 1023.8 1023.7 0.0
19/04:00pm 21.5 20.2 12.4 56 5.1 ESE 11 17 6 9 1023.7 1023.6 0.0
19/03:30pm 22.0 20.4 12.8 56 5.3 ESE 13 20 7 11 1023.7 1023.6 0.0
19/03:00pm 22.8 21.3 13.0 54 5.6 E 13 24 7 13 1023.6 1023.5 0.0
19/02:30pm 22.7 20.5 10.8 47 6.6 ESE 13 24 7 13 1023.9 1023.8 0.0
19/02:00pm 23.9 21.8 11.3 45 7.1 E 13 20 7 11 1024.1 1024.0 0.0
19/01:30pm 24.0 21.9 11.3 45 7.1 E 13 20 7 11 1024.5 1024.4 0.0
19/01:00pm 23.6 21.4 12.0 48 6.6 ENE 15 24 8 13 1024.8 1024.7 0.0
19/12:30pm 22.6 21.1 10.4 46 6.7 ESE 9 19 5 10 1025.4 1025.3 0.0
19/12:00pm 23.0 21.0 11.4 48 6.5 E 13 26 7 14 1025.7 1025.6 0.0
19/11:30am 23.2 21.0 10.9 46 6.8 ESE 13 22 7 12 1026.1 1026.0 0.0
19/11:00am 23.4 21.6 12.1 49 6.4 E 13 24 7 13 1026.4 1026.3 0.0
19/10:30am 21.9 21.4 12.7 56 5.2 E 7 15 4 8 1026.8 1026.7 0.0
19/10:00am 21.2 20.8 13.1 60 4.6 E 7 17 4 9 1027.2 1027.1 0.0
19/09:30am 20.9 20.9 14.1 65 4.0 ESE 7 11 4 6 1027.5 1027.4 0.0
19/09:00am 21.9 21.7 14.8 64 4.2 E 9 15 5 8 1027.6 1027.5 4.4
19/08:30am 20.5 21.4 15.1 71 3.2 ESE 4 15 2 8 1027.8 1027.6 4.4
19/08:00am 20.4 20.9 14.1 67 3.6 SW 4 11 2 6 1027.5 1027.4 4.4
19/07:30am 19.5 21.4 15.8 79 2.2 CALM 0 4 0 2 1027.5 1027.4 4.4
19/07:00am 17.9 19.3 15.3 85 1.5 SE 2 4 1 2 1027.3 1027.2 4.4
19/06:30am 16.9 18.9 15.9 94 0.6 CALM 0 0 0 0 1027.0 1026.9 4.4
19/06:00am 16.2 17.9 15.2 94 0.6 CALM 0 4 0 2 1026.7 1026.6 4.4
19/05:30am 15.6 17.2 14.8 95 0.5 CALM 0 0 0 0 1026.3 1026.2 4.4
19/05:00am 15.7 17.2 14.7 94 0.6 CALM 0 0 0 0 1025.9 1025.8 4.4
19/04:30am 16.1 17.8 15.1 94 0.6 CALM 0 0 0 0 1025.7 1025.6 4.4
19/04:00am 16.3 18.1 15.5 95 0.5 CALM 0 0 0 0 1025.5 1025.4 4.4
19/03:30am 16.2 17.9 15.2 94 0.6 CALM 0 4 0 2 1025.4 1025.3 4.2
19/03:00am 16.1 17.8 15.1 94 0.6 CALM 0 2 0 1 1025.3 1025.2 4.2
19/02:30am 16.4 17.8 15.4 94 0.6 S 2 6 1 3 1025.2 1025.1 4.2
19/02:00am 16.0 17.7 15.2 95 0.5 CALM 0 0 0 0 1025.2 1025.1 4.2
19/01:30am 15.9 17.5 14.9 94 0.6 CALM 0 4 0 2 1025.2 1025.1 4.2
19/01:00am 16.6 18.4 15.6 94 0.6 CALM 0 0 0 0 1025.7 1025.6 4.2
19/12:30am 16.7 17.7 15.4 92 0.8 E 4 11 2 6 1026.2 1026.1 4.0
19/12:00am 17.0 18.3 14.1 83 1.6 CALM 0 0 0 0 1026.3 1026.2 0.0
 
Date/Time
EST
Tmp

°C
App
Tmp
°C
Dew
Point
°C
Rel
Hum
%
Delta-T

°C
Wind Press
QNH
hPa
Press
MSL
hPa
Rain
since
9 am
mm
Dir
 
Spd
km/h
Gust
km/h
Spd
kts
Gust
kts
18/11:30pm 16.9 18.2 14.0 83 1.7 CALM 0 6 0 3 1026.4 1026.3 0.0
18/11:00pm 17.4 18.8 14.5 83 1.7 CALM 0 4 0 2 1026.7 1026.6 0.0
18/10:30pm 17.4 18.5 14.7 84 1.6 WSW 2 6 1 3 1026.9 1026.8 0.0
18/10:00pm 17.9 18.9 14.2 79 2.1 WSW 2 4 1 2 1027.0 1026.9 0.0

Latest Capital City Observations: Canberra | Sydney | Melbourne | Brisbane | Adelaide | Perth | Hobart | Darwin

Other Formats:

Comma delimited format used in spreadsheet applications
http://www.bom.gov.au/fwo/IDQ60901/IDQ60901.95572.axf

JavaScript Object Notation format (JSON) in row-major order
http://www.bom.gov.au/fwo/IDQ60901/IDQ60901.95572.json